GalileoSat-27

operational
NORAD ID: 49809 Int'l Des: 2021-116 Owner: EUSPA Country: I-EU Constellation: Galileo
MEOCIRCULAR

Über GalileoSat-27

Beschreibung wird geladen...

Live-Position

3D-Globus wird geladen...

Nächste Überflüge

Höhenverlauf

Altitude vs Time

uPlot chart will show altitude changes over time

Zweizeiliger Elementsatz

1 49809U 21116A 25344.11071397 -.00000087 00000-0 00000-0 0 9994
2 49809 57.2198 346.7832 0004630 251.6037 107.9349 1.70475768 24952
Epoch: 10. Dez. 2025 • Age: 91 hours

Aktueller Status

Höhe 23221.8 km
Geschwindigkeit 3.67 km/s
Subsatellitenpunkt 15.45°N, 111.69°E
Startdatum 5. Dez. 2021
Alter 4 years
Typ navigation

Technische Details

Klassifizierung Payload
Masse 733.00 kg
Trockenmasse 660.00 kg
Gesamtmasse 733.00 kg
Länge 2.70 m
Durchmesser 1.60 m
Spannweite 14.50 m
Form Box+2 pan
Hersteller OHB
Bus-Typ Galileo
Phasenstatus In Orbit
Besitzer/Staat EUSPA/I-EU

Große Konstellationen

Loading constellations...